Starlink 30825

operational
NORAD ID: 58384 Int'l Des: 2023-178 Owner: SPXS Country: US Constellation: starlink
LEOCIRCULAR

About Starlink 30825

Description loading...

Live Position

Loading 3D Globe...

Upcoming Passes

Altitude History

Altitude vs Time

uPlot chart will show altitude changes over time

Two-Line Element Set

1 58384U 23178L 25304.11183188 .00000187 00000-0 18460-4 0 9993
2 58384 53.1605 242.8390 0001321 71.7454 288.3691 15.30175637110055
Epoch: Oct 31, 2025 • Age: 21 hours

Current Status

Altitude 478.9 km
Velocity 7.63 km/s
Sub-Earth Point -11.86°S, 28.55°E
Launch Date Nov 20, 2023
Age 1.9 years
Type internet

Technical Details

Classification Payload
Mass 730.00 kg
Dry Mass 700.00 kg
Total Mass 730.00 kg
Length 0.30 m
Diameter 4.10 m
Span 29.00 m
Shape Box + pan
Manufacturer SPXS
Bus Type Starlink V2M
Phase Status In Orbit
Owner/State SPXS/US

Large Constellations

Loading constellations...